West Palm Beach, FL

11:25 PM EDT on August 20, 2019 (GMT -0400)
Palm Beach International

Weather History for KPBI - May, 2019

Change the Weather History Date:

Friday, May 3, 2019

  Actual Average Record
Temperature  
Mean Temperature 78 °F 76 °F  
Max Temperature 86 °F 84 °F 93 °F (2016)
Min Temperature 70 °F 69 °F 55 °F (1925)
Degree Days  
Heating Degree Days 0 0  
Month to date heating degree days 0 0  
Since 1 July heating degree days 144 233  
Cooling Degree Days 13 11  
Month to date cooling degree days 39 33  
Year to date cooling degree days 964 728  
Growing Degree Days 28 (Base 50)    
Moisture  
Dew Point 70 °F    
Average Humidity 73    
Maximum Humidity 87    
Minimum Humidity 58    
Precipitation  
Precipitation 0.73 in 0.09 in 4.20 in (1963)
Month to date precipitation 1.36 0.25  
Year to date precipitation 17.08 14.45  
Snow  
Snow 0.00 in - - ()
Month to date snowfall 0.0  
Since 1 July snowfall 0.0  
Snow Depth 0.00 in    
Sea Level Pressure  
Sea Level Pressure 30.02 in    
Wind  
Wind Speed 11 mph (SSE)    
Max Wind Speed 25 mph    
Max Gust Speed 31 mph    
Visibility 10 miles    
Events Rain , Thunderstorm    
T = Trace of Precipitation, MM = Missing Value Source: NWS Daily Summary

Daily Weather History Graph

Daily Weather History Graph

Search for Another Location

Airport or City:

Astronomy

May. 03, 2019 Rise Set
Actual Time 6:41 AM EDT 7:53 PM EDT
Civil Twilight 6:16 AM EDT 8:18 PM EDT
Nautical Twilight 5:47 AM EDT 8:47 PM EDT
Astronomical Twilight 5:17 AM EDT 9:17 PM EDT
Moon 6:05 AM EDT (5/3) 6:52 PM EDT (5/3)
Length of Visible Light 14h 01m
Length of Day
13h 12m
Waning Crescent, 2% of the Moon is Illuminated
May 3
Waning Crescent
May 4
New
May 11
First Quarter
May 18
Full
May 26
Last Quarter

Hourly Weather History & Observations

Time (EDT) Temp. Heat Index Dew Point Humidity Pressure Visibility Wind Dir Wind Speed Gust Speed Precip Events Conditions
12:53 AM 75.0 °F - 71.1 °F 87% 30.05 in 10.0 mi SE 10.4 mph - 0.01 in   Scattered Clouds
1:53 AM 75.0 °F - 70.0 °F 84% 30.02 in 10.0 mi SE 8.1 mph - N/A   Scattered Clouds
2:53 AM 73.9 °F - 66.9 °F 79% 30.01 in 10.0 mi SE 11.5 mph - N/A   Scattered Clouds
3:30 AM 73.0 °F - 68.0 °F 84% 30.01 in 10.0 mi SE 20.7 mph 24.2 mph N/A Thunderstorm Thunderstorm
3:53 AM 73.0 °F - 66.0 °F 79% 30.00 in 10.0 mi SSE 11.5 mph - N/A Thunderstorm Thunderstorm
3:57 AM 73.0 °F - 66.0 °F 79% 30.00 in 10.0 mi SSE 11.5 mph - N/A   Scattered Clouds
4:17 AM 73.9 °F - 64.9 °F 73% 30.00 in 10.0 mi SSE 16.1 mph 23.0 mph N/A Thunderstorm Thunderstorm
4:37 AM 73.9 °F - 64.0 °F 71% 29.99 in 10.0 mi SSE 12.7 mph - N/A   Scattered Clouds
4:53 AM 73.9 °F - 66.0 °F 76% 29.99 in 10.0 mi SSE 13.8 mph - N/A   Scattered Clouds
5:53 AM 75.0 °F - 71.1 °F 87% 30.00 in 10.0 mi SSE 4.6 mph - N/A   Mostly Cloudy
6:53 AM 75.0 °F - 72.0 °F 90% 30.02 in 10.0 mi SSW 4.6 mph - N/A   Mostly Cloudy
7:28 AM 75.9 °F - 73.0 °F 91% 30.03 in 10.0 mi South 6.9 mph - N/A Thunderstorm Thunderstorm
7:53 AM 77.0 °F - 73.0 °F 88% 30.03 in 10.0 mi SSE 9.2 mph - N/A Thunderstorm Thunderstorm
8:06 AM 78.1 °F - 73.0 °F 84% 30.04 in 10.0 mi SSE 8.1 mph - N/A Thunderstorm Thunderstorm
8:39 AM 80.1 °F 84.5 °F 73.9 °F 81% 30.04 in 10.0 mi South 11.5 mph - N/A   Mostly Cloudy
8:53 AM 79.0 °F - 73.0 °F 82% 30.04 in 10.0 mi SSE 15.0 mph - N/A   Mostly Cloudy
9:14 AM 79.0 °F - 69.1 °F 72% 30.04 in 10.0 mi SSE 13.8 mph - N/A   Scattered Clouds
9:53 AM 81.0 °F 82.7 °F 64.9 °F 58% 30.04 in 10.0 mi South 13.8 mph - N/A   Scattered Clouds
10:46 AM 82.9 °F 88.8 °F 73.0 °F 72% 30.04 in 10.0 mi South 16.1 mph - N/A   Mostly Cloudy
10:53 AM 84.0 °F 90.2 °F 73.0 °F 69% 30.04 in 10.0 mi South 13.8 mph - N/A   Mostly Cloudy
11:53 AM 84.0 °F 90.2 °F 73.0 °F 69% 30.04 in 10.0 mi SSE 17.3 mph 20.7 mph N/A   Mostly Cloudy
12:53 PM 84.9 °F 91.4 °F 73.0 °F 67% 30.02 in 10.0 mi South 17.3 mph - N/A   Mostly Cloudy
1:53 PM 82.9 °F 88.8 °F 73.0 °F 72% 30.00 in 10.0 mi SSE 15.0 mph - N/A   Mostly Cloudy
2:53 PM 82.0 °F 87.4 °F 73.0 °F 74% 29.99 in 10.0 mi SE 18.4 mph - N/A   Mostly Cloudy
3:53 PM 81.0 °F 85.8 °F 73.0 °F 77% 29.98 in 10.0 mi SSE 18.4 mph - N/A   Mostly Cloudy
3:56 PM 80.1 °F 84.2 °F 73.0 °F 79% 29.98 in 10.0 mi SSE 16.1 mph 25.3 mph N/A Thunderstorm Thunderstorm
4:53 PM 80.1 °F 84.2 °F 73.0 °F 79% 29.97 in 10.0 mi SSE 17.3 mph - N/A Thunderstorm Thunderstorm
5:23 PM 72.0 °F - 68.0 °F 87% 30.03 in 3.0 mi NNW 21.9 mph 31.1 mph 0.02 in Rain , Thunderstorm Heavy Thunderstorms and Rain
5:35 PM 70.0 °F - 69.1 °F 97% 30.03 in 3.0 mi North 8.1 mph - 0.41 in Rain , Thunderstorm Heavy Thunderstorms and Rain
5:53 PM 70.0 °F - 68.0 °F 93% 30.01 in 5.0 mi Variable 6.9 mph - 0.70 in Rain , Thunderstorm Thunderstorms and Rain
6:25 PM 73.0 °F - 70.0 °F 90% 29.99 in 7.0 mi SE 6.9 mph - 0.03 in Rain , Thunderstorm Light Thunderstorms and Rain
6:53 PM 73.9 °F - 71.1 °F 91% 30.01 in 10.0 mi ESE 11.5 mph - 0.03 in Thunderstorm Thunderstorm
7:02 PM 73.0 °F - 69.1 °F 87% 30.02 in 10.0 mi SE 9.2 mph 23.0 mph N/A   Mostly Cloudy
7:53 PM 73.0 °F - 69.1 °F 87% 30.01 in 10.0 mi SSE 5.8 mph - N/A   Mostly Cloudy
8:53 PM 73.9 °F - 69.1 °F 85% 30.03 in 10.0 mi SSE 8.1 mph - N/A   Mostly Cloudy
9:53 PM 75.0 °F - 71.1 °F 87% 30.05 in 10.0 mi ESE 5.8 mph - N/A   Mostly Cloudy
10:53 PM 75.0 °F - 69.1 °F 82% 30.05 in 10.0 mi ESE 5.8 mph - N/A   Mostly Cloudy
11:53 PM 75.0 °F - 68.0 °F 79% 30.04 in 10.0 mi Calm Calm - N/A   Mostly Cloudy